#timestamp,LO_Frequency,Hit,StdDev 
1677852015.2,286046997.9,N
1677852035.0,286047000.6,N
1677852036.0,286047000.6,N
1677852055.8,286047005.4,N
1677852075.6,286047008.3,N
1677852095.5,286047010.0,N
1677852115.3,286047013.9,N
1677852135.1,286047013.9,N
1677852155.9,286047014.9,N
1677852175.7,286047019.9,N
1677852195.5,286047025.7,N
1677852215.4,286047025.5,N
1677852235.2,286047026.6,N
1677852255.1,286047022.3,N
1677852256.0,286047022.3,N
1677852275.8,286047018.0,N
1677852295.7,286047022.7,N
1677852315.5,286047025.8,N
1677852335.3,286047017.8,N
1677852355.2,286047009.6,N
1677852375.0,286047007.1,N
1677852375.9,286047007.1,N
1677852395.7,286047001.4,N
1677852415.6,286047001.8,N
1677852435.4,286046996.2,N
1677852455.3,286046992.2,N
1677852475.1,286046981.0,N
1677852476.0,286046981.0,N
1677852495.8,286046981.2,N
1677852515.7,286046982.1,N
1677852535.5,286046986.2,N
1677852555.3,286046992.4,N
1677852575.2,286046992.8,N
1677852595.0,286046994.1,N
1677852595.9,286046994.1,N
1677852615.8,286046992.8,N
1677852635.6,286046993.6,N
1677852655.4,286046992.5,N
1677852675.3,286046995.1,N
1677852695.1,286047004.1,N
1677852715.9,286047008.5,N
1677852735.7,286047007.3,N
1677852755.5,286047006.8,N
1677852775.4,286047003.1,N
1677852795.2,286047003.5,N
1677852815.0,286047003.5,N
1677852815.9,286047003.5,N
1677852835.8,286047007.5,N
1677852855.6,286047011.6,N
1677852875.5,286047016.8,N
1677852895.3,286047005.7,N
1677852915.1,286047001.4,N
1677852935.9,286047002.8,N
1677852955.7,286046993.0,N
1677852975.6,286046992.8,N
1677852995.4,286046988.6,N
1677853015.2,286046989.1,N
1677853035.1,286046984.8,N
1677853036.0,286046984.8,N
1677853055.8,286046978.4,N
1677853075.7,286046974.5,N
1677853095.5,286046976.9,N
1677853115.1,286046974.0,N
1677853116.0,286046974.0,N
1677853135.8,286046974.3,N
1677853155.7,286046980.3,N
1677853175.5,286046980.0,N
1677853195.3,286046982.4,N
1677853215.2,286046983.9,N
1677853235.0,286046985.5,N
1677853235.9,286046985.5,N
1677853255.7,286046986.8,N
1677853275.6,286046985.9,N
1677853295.4,286046984.1,N
1677853315.3,286046988.2,N
1677853335.1,286046989.5,N
1677853336.0,286046989.5,N
1677853355.8,286046991.4,N
1677853375.7,286046994.2,N
1677853395.5,286046988.5,N
1677853415.4,286046994.3,N
1677853435.2,286046982.6,N
1677853455.0,286046976.6,Y
1677853455.9,286046976.6,P
1677853475.8,286046990.1,N
1677853495.6,286046992.5,N
1677853515.5,286046997.3,N
1677853535.3,286046996.8,N
1677853555.1,286046993.5,N
1677853575.9,286046989.4,N
1677853595.7,286046987.4,N
1677853615.6,286046989.9,N
1677853635.4,286046985.3,N
1677853655.2,286046987.6,N
1677853675.1,286046989.3,N
1677853676.0,286046989.3,N
1677853695.8,286046993.0,N
1677853715.7,286046992.9,N
1677853735.5,286046994.1,N
1677853755.3,286046996.0,N
1677853775.2,286046995.3,N
1677853795.0,286047002.7,N
1677853795.9,286047002.7,N
1677853815.8,286047000.6,N
1677853835.6,286046997.4,N
1677853855.4,286046992.2,N
1677853875.3,286046992.6,N
1677853895.1,286046991.3,N
1677853915.8,286046996.2,N
1677853935.7,286046997.3,N
1677853955.5,286047004.7,N
1677853975.4,286047009.9,N
1677853995.2,286047018.4,N
1677854015.0,286047019.7,N
1677854015.9,286047019.7,N
1677854035.8,286047012.6,N
1677854055.6,286047008.8,N
1677854075.4,286047005.3,N
1677854095.3,286047003.2,N
1677854115.1,286047003.9,N
1677854135.9,286047000.2,N
1677854155.7,286047002.0,N
1677854175.5,286046998.6,N
1677854195.4,286046995.4,N
1677854215.2,286046992.2,N
1677854235.0,286046990.9,N
1677854235.9,286046990.9,N
1677854255.8,286046994.3,N
1677854275.6,286046993.9,N
1677854295.5,286046995.9,N
1677854315.3,286047011.9,N
1677854335.1,286047002.4,N
1677854355.9,286047001.9,N
1677854375.7,286046999.6,N
1677854395.5,286046991.9,N
1677854415.4,286046991.5,N
1677854435.2,286046989.7,N
1677854455.1,286046989.7,N
1677854456.0,286046989.7,N
1677854475.8,286046995.7,N
1677854495.6,286046996.8,N
1677854515.5,286047004.7,N
1677854535.3,286047009.8,N
1677854555.1,286047008.2,N
1677854575.9,286047006.4,N
1677854595.7,286047007.4,N
1677854615.6,286047003.2,N
1677854635.4,286047000.6,N
1677854655.2,286047002.0,N
1677854675.1,286047001.1,N
1677854676.0,286047001.1,N
1677854695.8,286046994.5,N
1677854715.6,286046999.5,N
1677854735.5,286047003.5,N
1677854755.3,286047009.5,N
1677854775.2,286047012.5,N
1677854795.9,286047014.7,N
1677854815.7,286047018.1,N
1677854835.6,286047020.0,N
1677854855.4,286047015.3,N
1677854875.2,286047018.7,N
1677854895.1,286047020.1,N
1677854896.0,286047020.1,N
1677854915.8,286047015.2,N
1677854935.7,286047012.0,N
1677854955.5,286047012.6,N
1677854975.3,286047014.7,N
1677854995.2,286047014.1,N
1677855015.0,286047020.1,N
1677855015.9,286047020.1,N
1677855035.7,286047020.6,N
1677855055.6,286047022.9,Y
1677855075.4,286047009.0,P
1677855095.3,286047003.9,P
1677855115.1,286047001.2,N
1677855116.0,286047001.2,N
1677855135.8,286047001.4,N
1677855155.7,286047002.0,N
1677855175.5,286047004.8,N
1677855195.3,286047004.8,N
1677855215.2,286047006.4,N
1677855235.0,286047009.6,Y
1677855235.9,286047009.6,P
1677855255.8,286047005.7,N
1677855275.6,286047000.5,N
1677855295.4,286047004.4,N
1677855315.3,286046998.3,N
1677855335.1,286047001.0,N
1677855355.8,286046993.9,N
1677855375.7,286046994.9,N
1677855395.5,286046995.2,N
1677855415.4,286046993.8,N
1677855435.2,286046999.4,N
1677855455.0,286046998.5,N
1677855455.9,286046998.5,N
1677855475.8,286047000.5,N
1677855495.6,286046998.0,N
1677855515.4,286046994.8,N
1677855535.3,286046994.7,N
1677855555.1,286046994.3,N
1677855575.9,286046987.1,N
1677855595.7,286046989.3,N
